| Date | Time | Temp. (oF) | Dew Point (oF) | Rel. Hum. (%) | Press. (in.) | Wind Dir. | Wind Speed (mph) | Hourly Rainfall (in.) |
|
|---|---|---|---|---|---|---|---|---|---|
| 1 | 07/14 | 00:00 | 63 | 54 | 75 | 29.98 | NW | 0 | 0.00 |
| 2 | 07/13 | 23:00 | 65 | 54 | 69 | 29.96 | NW | 0 | 0.00 |
| 3 | 07/13 | 22:00 | 71 | 52 | 53 | 29.93 | NNW | 0 | 0.00 |
| 4 | 07/13 | 21:00 | 74 | 50 | 44 | 29.90 | NNE | 0 | 0.00 |
| 5 | 07/13 | 20:00 | 79 | 50 | 37 | 29.87 | WNW | 0 | 0.00 |
| 6 | 07/13 | 19:00 | 81 | 51 | 36 | 29.86 | WNW | 3 | 0.00 |
| 7 | 07/13 | 18:00 | 82 | 51 | 35 | 29.86 | N | 4 | 0.00 |
| 8 | 07/13 | 17:00 | 82 | 53 | 38 | 29.86 | WNW | 8 | 0.00 |
| 9 | 07/13 | 16:00 | 83 | 54 | 38 | 29.87 | WNW | 9 | 0.00 |
| 10 | 07/13 | 15:00 | 83 | 54 | 38 | 29.87 | NNW | 7 | 0.00 |
| 11 | 07/13 | 14:00 | 83 | 55 | 39 | 29.89 | NW | 5 | 0.00 |
| 12 | 07/13 | 13:00 | 82 | 57 | 44 | 29.90 | NNE | 8 | 0.00 |
| 13 | 07/13 | 12:00 | 79 | 56 | 46 | 29.91 | W | 5 | 0.00 |
| 14 | 07/13 | 11:00 | 77 | 55 | 48 | 29.91 | NW | 6 | 0.00 |
| 15 | miss | miss | miss | miss | miss | miss | miss | miss | |
| 16 | 07/13 | 10:30 | 76 | 57 | 53 | 29.91 | WSW | 1 | 0.00 |
| 17 | miss | miss | miss | miss | miss | miss | miss | miss | |
| 18 | 07/13 | 10:28 | 76 | 59 | 57 | 29.92 | S | 4 | 0.00 |
| 19 | miss | miss | miss | miss | miss | miss | miss | miss | |
| 20 | 07/13 | 10:26 | 76 | 59 | 56 | 29.92 | SSW | 5 | 0.00 |
| 21 | miss | miss | miss | miss | miss | miss | miss | miss | |
| 22 | 07/13 | 10:24 | 76 | 57 | 53 | 29.92 | SW | 6 | 0.00 |
| 23 | miss | miss | miss | miss | miss | miss | miss | miss | |
| 24 | 07/13 | 10:22 | 76 | 56 | 52 | 29.92 | WNW | 0 | 0.00 |
| 25 | miss | miss | miss | miss | miss | miss | miss | miss | |
| 26 | 07/13 | 10:21 | 76 | 56 | 52 | 29.92 | WNW | 1 | 0.00 |
| 27 | miss | miss | miss | miss | miss | miss | miss | miss | |
| 28 | 07/13 | 10:21 | 76 | 56 | 52 | 29.92 | WNW | 1 | 0.00 |
| 29 | miss | miss | miss | miss | miss | miss | miss | miss | |
| 30 | 07/13 | 10:21 | 76 | 56 | 52 | 29.92 | WNW | 1 | 0.00 |
| 31 | miss | miss | miss | miss | miss | miss | miss | miss | |
| 32 | 07/13 | 10:21 | 76 | 56 | 52 | 29.92 | WNW | 1 | 0.00 |
| 33 | miss | miss | miss | miss | miss | miss | miss | miss | |
| 34 | 07/13 | 10:21 | 76 | 56 | 52 | 29.92 | WNW | 1 | 0.00 |
| 35 | miss | miss | miss | miss | miss | miss | miss | miss | |
| 36 | 07/13 | 10:21 | 76 | 56 | 52 | 29.92 | WNW | 1 | 0.00 |
| 37 | miss | miss | miss | miss | miss | miss | miss | miss | |
| 38 | 07/13 | 10:21 | 76 | 56 | 52 | 29.92 | WNW | 1 | 0.00 |
| 39 | 07/13 | 10:00 | 75 | 56 | 53 | 29.92 | SW | 3 | 0.00 |
| 40 | 07/13 | 09:00 | 72 | 61 | 70 | 29.93 | NNE | 0 | 0.00 |
| 41 | 07/13 | 08:00 | 63 | 61 | 94 | 29.94 | S | 0 | 0.00 |
| 42 | 07/13 | 07:00 | 60 | 58 | 95 | 29.93 | SSW | 0 | 0.00 |
| 43 | 07/13 | 06:00 | 59 | 57 | 94 | 29.93 | SSW | 0 | 0.00 |
| 44 | 07/13 | 05:00 | 59 | 56 | 93 | 29.92 | NW | 0 | 0.00 |
| 45 | 07/13 | 04:00 | 59 | 56 | 92 | 29.92 | N | 0 | 0.00 |
| 46 | 07/13 | 03:00 | 60 | 56 | 87 | 29.92 | N | 0 | 0.00 |
| 47 | 07/13 | 02:00 | 60 | 54 | 83 | 29.93 | N | 0 | 0.00 |
| 48 | 07/13 | 01:00 | 62 | 54 | 77 | 29.94 | N | 0 | 0.00 |
| 49 | 07/13 | 00:00 | 65 | 53 | 67 | 29.93 | N | 0 | 0.00 |
| 50 | 07/12 | 23:00 | 70 | 51 | 52 | 29.92 | N | 0 | 0.00 |
| 51 | 07/12 | 22:00 | 73 | 51 | 47 | 29.92 | NNE | 0 | 0.00 |
| 52 | 07/12 | 21:00 | 76 | 52 | 44 | 29.90 | N | 3 | 0.00 |
| 53 | 07/12 | 20:00 | 79 | 54 | 43 | 29.88 | N | 5 | 0.00 |
| 54 | 07/12 | 19:00 | 82 | 54 | 39 | 29.87 | N | 8 | 0.00 |
| 55 | 07/12 | 18:00 | 84 | 55 | 38 | 29.87 | N | 2 | 0.00 |
| 56 | 07/12 | 17:00 | 84 | 57 | 41 | 29.88 | NW | 9 | 0.00 |
| 57 | 07/12 | 16:00 | 84 | 58 | 42 | 29.90 | NNW | 1 | 0.00 |
| 58 | 07/12 | 15:00 | 83 | 59 | 46 | 29.92 | WNW | 3 | 0.00 |
| 59 | 07/12 | 14:00 | 82 | 57 | 44 | 29.93 | NE | 5 | 0.00 |
| 60 | 07/12 | 13:00 | 81 | 58 | 46 | 29.96 | NW | 6 | 0.00 |
| 61 | 07/12 | 12:00 | 80 | 57 | 47 | 29.98 | NW | 5 | 0.00 |
| 62 | 07/12 | 11:00 | 78 | 65 | 65 | 29.99 | NNW | 4 | 0.00 |
| 63 | 07/12 | 10:00 | 75 | 64 | 71 | 29.99 | NNE | 10 | 0.00 |
| 64 | 07/12 | 09:00 | 73 | 67 | 82 | 30.00 | NE | 3 | 0.00 |
| 65 | 07/12 | 08:00 | 70 | 68 | 94 | 29.99 | NNW | 1 | 0.00 |
| 66 | 07/12 | 07:00 | 68 | 67 | 97 | 29.97 | N | 0 | 0.00 |
| 67 | 07/12 | 06:00 | 67 | 65 | 96 | 29.95 | NE | 0 | 0.00 |
| 68 | 07/12 | 05:00 | 68 | 66 | 96 | 29.93 | NW | 0 | 0.00 |
| 69 | 07/12 | 04:00 | 68 | 66 | 94 | 29.93 | E | 0 | 0.00 |
| 70 | 07/12 | 03:00 | 70 | 67 | 92 | 29.92 | ENE | 0 | 0.00 |
| 71 | 07/12 | 02:00 | 72 | 68 | 90 | 29.93 | NNE | 0 | 0.00 |
| 72 | 07/12 | 01:00 | 73 | 69 | 89 | 29.93 | NE | 0 | 0.00 |
| 73 | 07/12 | 00:00 | 74 | 69 | 86 | 29.93 | SW | 8 | 0.00 |
| 74 | 07/11 | 23:00 | 73 | 68 | 87 | 29.93 | WSW | 6 | 0.00 |